User: anonymous   Login
Location: Ostrava
(49.8330°N, 18.2830°E)
Time: 18:24:55
(UTC+02:00)
Language:

Cosmos 1766 - Orbit

View from above orbital plane
View from above orbital plane
View from above satellite
View from above satellite

Ground track
Ground track

The orbit data is extracted from the following two-line orbital elements,

1 16881U 86055A   15212.93308577  .00001037  00000-0  64670-4 0  9999
2 16881 082.5054 334.3026 0014768 286.2490 073.7113 15.08402848577919
Epoch (UTC): 31 July 2015 22:23:38
Eccentricity: 0.0014768
inclination: 82.5054°
perigee height: 531 km
apogee height: 551 km
right ascension of ascending node: 334.3026°
argument of perigee: 286.2490°
revolutions per day: 15.08402848
mean anomaly at epoch: 73.7113°
orbit number at epoch: 57791

The dashed part of the orbit path shows where the satellite is in the earth's shadow,  

DLR